[[{"header":{"parameterUnit":"m.s-1","parameterCategory":1,"la1":30.2992,"la2":30.254,"lo1":-89.0895,"lo2":-89.0443,"dy":0.0025,"dx":0.0025,"nx":19,"ny":19,"refTime":"2026-03-23T03:00:00:Z","depth":0,"parameterNumber":2,"parameterNumberName":"U-component_of_WINDS"},"data":[0,0,0,-3.2149,-3.215,-3.2196,-3.2196,-3.228,-3.2281,0,0,0,0,0,0,0,0,0,0,0,-3.2151,-3.2152,-3.2149,-3.215,-3.2196,-3.2196,-3.228,-3.2281,0,0,0,0,0,0,0,0,0,0,0,-3.215,-3.2152,-3.2153,-3.2151,-3.2196,-3.2196,-3.2279,-3.2236,0,0,0,0,0,0,0,0,0,0,-3.2187,-3.2204,-3.2151,-3.2153,-3.2151,-3.2196,-3.2196,-3.2233,-3.2239,-3.227,0,-3.2302,0,-3.2293,-3.2288,-3.2288,0,0,0,-3.2139,-3.22,-3.2198,-3.2153,-3.2152,-3.2196,-3.2172,-3.2236,-3.2242,-3.2277,-3.2303,-3.2305,-3.2294,-3.2289,-3.2289,-3.2509,-3.2511,0,0,-3.2136,-3.2167,-3.2194,-3.2203,-3.2197,-3.2171,-3.2174,-3.2239,-3.2269,-3.2303,-3.2307,-3.2296,-3.2289,-3.229,-3.2508,-3.2509,0,0,0,-3.2137,-3.2166,-3.2162,-3.22,-3.2206,-3.2172,-3.2176,-3.2266,-3.2262,-3.2308,-3.2297,-3.229,-3.2291,-3.2506,-3.2508,-3.2617,0,0,0,-3.2135,-3.2166,-3.2162,-3.2181,-3.2206,-3.2237,-3.2202,-3.2258,-3.2264,-3.2296,-3.229,-3.2292,-3.2504,-3.2507,-3.261,-3.2664,0,0,0,-3.2143,-3.2167,-3.2179,-3.2183,-3.2203,-3.2235,-3.2235,-3.2259,-3.2259,-3.2288,-3.2293,-3.2503,-3.2507,-3.2604,-3.2654,-3.2732,0,0,0,-3.216,-3.2274,-3.2181,-3.2304,-3.2203,-3.2302,-3.2234,-3.2305,-3.2344,-3.2291,-3.2504,-3.2508,-3.2602,-3.2648,-3.2726,-3.2805,-3.2841,0,0,-3.2321,-3.2295,-3.2365,-3.2283,-3.2406,-3.2292,-3.2431,-3.2436,-3.2411,-3.2478,-3.2483,-3.2613,-3.2653,-3.2731,-3.3025,-3.3053,0,0,0,-3.2426,-3.2478,-3.2503,-3.2542,-3.2549,-3.256,-3.2541,-3.2543,-3.2598,-3.2451,-3.266,-3.2683,-3.2727,-3.2764,-3.2788,-3.2825,-3.2526,-3.2525,-3.2525,-3.2701,-3.2662,-3.2776,-3.2743,-3.278,-3.276,-3.2787,-3.2787,-3.2735,-3.2786,-3.2806,-3.2989,-3.3033,-3.3051,-3.309,-3.2843,-3.2843,-3.2844,-3.2844,-3.2936,-3.3003,-3.2932,-3.3018,-3.2976,-3.3047,-3.3032,-3.2993,-3.3054,-3.297,-3.3007,-3.2921,-3.3083,-3.3115,-3.2852,-3.285,-3.2849,-3.2849,-3.2848,-3.3113,-3.3139,-3.3139,-3.3191,-3.3235,-3.3196,-3.3258,-3.3217,-3.3179,-3.3215,-3.3234,-3.3232,-3.3227,-3.3226,-3.3227,-3.3228,-3.3228,-3.3229,-3.3229,-3.3298,-3.3295,-3.3352,-3.337,-3.3389,-3.341,-3.339,-3.3408,-3.3417,-3.3383,-3.3383,-3.3328,-3.3106,-3.3052,-3.3239,-3.3237,-3.3236,-3.3235,-3.3234,-3.3555,-3.349,-3.3579,-3.3599,-3.3616,-3.3664,-3.3609,-3.365,-3.3659,-3.3691,-3.3628,-3.3469,-3.3439,-3.342,-3.3375,-3.3634,-3.3634,-3.3635,-3.3635,-3.3707,-3.3687,-3.3769,-3.3803,-3.3832,-3.3792,-3.3895,-3.388,-3.3855,-3.3859,-3.3814,-3.3751,-3.3733,-3.3713,-3.3687,-3.3645,-3.3968,-3.3968,-3.3968,-3.3863,-3.3844,-3.394,-3.3914,-3.3925,-3.3935,-3.403,-3.4073,-3.403,-3.3981,-3.3861,-3.3847,-3.3743,-3.3711,-3.3662,-3.3623,-3.3545,0,0]},{"header":{"parameterUnit":"m.s-1","parameterCategory":1,"la1":30.2992,"la2":30.254,"lo1":-89.0895,"lo2":-89.0443,"dy":0.0025,"dx":0.0025,"nx":19,"ny":19,"refTime":"2026-03-23T03:00:00:Z","depth":0,"parameterNumber":3,"parameterNumberName":"V-component_of_WINDS"},"data":[0,0,0,-3.4,-3.4002,-3.4102,-3.4103,-3.4227,-3.4228,0,0,0,0,0,0,0,0,0,0,0,-3.397,-3.397,-3.3999,-3.4002,-3.4102,-3.4103,-3.4227,-3.4228,0,0,0,0,0,0,0,0,0,0,0,-3.3969,-3.397,-3.3971,-3.4002,-3.4102,-3.4103,-3.4226,-3.4152,0,0,0,0,0,0,0,0,0,0,-3.4055,-3.4027,-3.397,-3.3971,-3.4003,-3.4102,-3.4103,-3.4148,-3.4156,-3.418,0,-3.4203,0,-3.4218,-3.4236,-3.4237,0,0,0,-3.4002,-3.402,-3.4048,-3.3972,-3.4004,-3.4102,-3.4057,-3.4153,-3.4162,-3.4191,-3.4205,-3.421,-3.422,-3.4237,-3.4238,-3.4381,-3.4382,0,0,-3.3996,-3.3987,-3.4042,-3.4054,-3.4041,-3.4054,-3.406,-3.4158,-3.4172,-3.4206,-3.4213,-3.4222,-3.4238,-3.4239,-3.4381,-3.4382,0,0,0,-3.398,-3.3983,-3.4008,-3.4049,-3.4067,-3.4057,-3.4064,-3.4168,-3.4177,-3.4214,-3.4223,-3.4238,-3.424,-3.438,-3.4381,-3.4407,0,0,0,-3.3977,-3.3974,-3.4006,-3.4001,-3.4065,-3.4119,-3.4071,-3.417,-3.4182,-3.4223,-3.4238,-3.4241,-3.4379,-3.4381,-3.4405,-3.442,0,0,0,-3.3963,-3.3972,-3.3987,-3.4001,-3.4044,-3.4118,-3.4133,-3.4173,-3.4187,-3.4237,-3.4241,-3.4379,-3.438,-3.4403,-3.4417,-3.4455,0,0,0,-3.3945,-3.4008,-3.3987,-3.4061,-3.4043,-3.4134,-3.4132,-3.42,-3.4245,-3.4239,-3.4379,-3.4381,-3.4402,-3.4415,-3.4453,-3.4486,-3.4499,0,0,-3.4019,-3.4016,-3.406,-3.4045,-3.4137,-3.4119,-3.4215,-3.4264,-3.4276,-3.4345,-3.4349,-3.4405,-3.4417,-3.4455,-3.4576,-3.4586,0,0,0,-3.4081,-3.4112,-3.4138,-3.4182,-3.4222,-3.4258,-3.4294,-3.4312,-3.4371,-3.431,-3.443,-3.4437,-3.446,-3.4476,-3.4485,-3.4504,-3.4388,-3.4388,-3.4388,-3.4172,-3.4185,-3.4258,-3.4284,-3.4326,-3.4362,-3.4397,-3.4427,-3.4427,-3.4455,-3.4476,-3.4548,-3.4566,-3.4573,-3.4593,-3.4494,-3.4494,-3.4494,-3.4495,-3.4281,-3.4328,-3.4327,-3.4398,-3.441,-3.4469,-3.4506,-3.4504,-3.4559,-3.4533,-3.4554,-3.4525,-3.4584,-3.4602,-3.4497,-3.4496,-3.4496,-3.4496,-3.4496,-3.4343,-3.4367,-3.4389,-3.4454,-3.4501,-3.4523,-3.4577,-3.4586,-3.4595,-3.4615,-3.4637,-3.4637,-3.4637,-3.4625,-3.4625,-3.4626,-3.4626,-3.4626,-3.4626,-3.4398,-3.4422,-3.4467,-3.4515,-3.4543,-3.4582,-3.4619,-3.4647,-3.468,-3.4682,-3.4682,-3.4679,-3.4588,-3.4564,-3.463,-3.4629,-3.4629,-3.4629,-3.4628,-3.4504,-3.4481,-3.4551,-3.458,-3.4636,-3.4682,-3.4693,-3.4749,-3.4774,-3.4799,-3.4791,-3.4723,-3.472,-3.4713,-3.4694,-3.4789,-3.4789,-3.4789,-3.4789,-3.4556,-3.4556,-3.4629,-3.4674,-3.472,-3.4737,-3.4813,-3.4841,-3.4866,-3.4881,-3.4869,-3.4844,-3.4836,-3.4838,-3.4829,-3.4811,-3.4934,-3.4934,-3.4934,-3.4621,-3.4626,-3.469,-3.4716,-3.4761,-3.4798,-3.4869,-3.4919,-3.4943,-3.494,-3.4893,-3.4887,-3.4847,-3.4834,-3.483,-3.4814,-3.4782,0,0]}]]